DLH6AL EDDM-EGLL

Flight info

Callsign DLH6AL
Flight time N/A
Altitude 34000
Route GIVMI1N GIVMI Y101 INBED DCT REKDI DCT LOHRE DCT ADKUV DCT DENUT L608 LOGAN
Aircraft A321/M-SDE2E3FGIJ1LORWXYZ/HB1

Departure

Time 2026-05-07 07:09
Airport Munich Airport (EDDM)

Arrival

Time N/A
Airport London Heathrow Airport (EGLL)
Time Latitude Longitude Altitude Speed Heading
2026-05-07 06:40 48.35457 11.79315 1486 ft 0 kts 263°
2026-05-07 06:58 48.35460 11.79351 1456 ft 4 kts 263°
2026-05-07 06:58 48.35463 11.79386 1477 ft 2 kts 263°
2026-05-07 06:58 48.35463 11.79423 1477 ft 4 kts 287°
2026-05-07 06:58 48.35457 11.79445 1471 ft 4 kts 319°
2026-05-07 06:59 48.35435 11.79457 1475 ft 4 kts 353°
2026-05-07 06:59 48.35421 11.79460 1474 ft 0 kts 353°
2026-05-07 07:01 48.35422 11.79460 1485 ft 1 kts 353°
2026-05-07 07:01 48.35431 11.79465 1475 ft 3 kts 30°
2026-05-07 07:01 48.35449 11.79511 1480 ft 7 kts 59°
2026-05-07 07:02 48.35485 11.79572 1474 ft 9 kts 35°
2026-05-07 07:02 48.35546 11.79577 1475 ft 10 kts 347°
2026-05-07 07:02 48.35617 11.79562 1485 ft 11 kts 353°
2026-05-07 07:02 48.35701 11.79547 1481 ft 13 kts 353°
2026-05-07 07:03 48.35793 11.79531 1476 ft 13 kts 353°
2026-05-07 07:03 48.35889 11.79515 1479 ft 15 kts 353°
2026-05-07 07:03 48.35995 11.79496 1482 ft 16 kts 353°
2026-05-07 07:03 48.36108 11.79476 1485 ft 14 kts 354°
2026-05-07 07:04 48.36179 11.79465 1472 ft 11 kts 355°
2026-05-07 07:04 48.36219 11.79544 1484 ft 12 kts 82°
2026-05-07 07:04 48.36229 11.79683 1485 ft 14 kts 84°
2026-05-07 07:04 48.36242 11.79838 1481 ft 16 kts 83°
2026-05-07 07:05 48.36254 11.80001 1485 ft 16 kts 83°
2026-05-07 07:05 48.36268 11.80172 1478 ft 17 kts 83°
2026-05-07 07:05 48.36280 11.80332 1473 ft 14 kts 83°
2026-05-07 07:05 48.36292 11.80488 1479 ft 16 kts 84°
2026-05-07 07:06 48.36305 11.80658 1485 ft 17 kts 83°
2026-05-07 07:06 48.36318 11.80844 1485 ft 18 kts 82°
2026-05-07 07:06 48.36335 11.81037 1485 ft 16 kts 83°
2026-05-07 07:06 48.36346 11.81179 1482 ft 11 kts 80°
2026-05-07 07:07 48.36404 11.81202 1482 ft 10 kts 322°
2026-05-07 07:07 48.36445 11.81104 1477 ft 12 kts 295°
2026-05-07 07:07 48.36476 11.80987 1481 ft 13 kts 292°
2026-05-07 07:07 48.36511 11.80861 1476 ft 14 kts 293°
2026-05-07 07:08 48.36550 11.80724 1484 ft 15 kts 294°
2026-05-07 07:08 48.36573 11.80618 1485 ft 4 kts 264°
2026-05-07 07:08 48.36568 11.80545 1480 ft 20 kts 264°
2026-05-07 07:08 48.36522 11.79943 1474 ft 94 kts 263°
2026-05-07 07:09 48.36420 11.78642 1499 ft 152 kts 264°
2026-05-07 07:09 48.36295 11.77059 2213 ft 150 kts 263°
2026-05-07 07:09 48.36181 11.75515 3029 ft 145 kts 263°
2026-05-07 07:09 48.36080 11.74044 3763 ft 139 kts 262°
2026-05-07 07:10 48.35970 11.72598 4385 ft 139 kts 263°
2026-05-07 07:10 48.35860 11.71149 4911 ft 145 kts 263°
2026-05-07 07:10 48.35735 11.69531 5211 ft 166 kts 263°
2026-05-07 07:10 48.35866 11.67690 5458 ft 192 kts 286°
2026-05-07 07:11 48.36553 11.65817 5631 ft 217 kts 298°
2026-05-07 07:11 48.37397 11.63771 5829 ft 242 kts 298°
2026-05-07 07:11 48.38422 11.61666 6393 ft 257 kts 314°
2026-05-07 07:11 48.39951 11.60157 6871 ft 268 kts 326°
2026-05-07 07:12 48.41601 11.58834 7592 ft 270 kts 328°
2026-05-07 07:12 48.43285 11.57531 8323 ft 274 kts 328°
2026-05-07 07:12 48.44993 11.56217 9039 ft 278 kts 328°
2026-05-07 07:12 48.46729 11.54877 9758 ft 282 kts 328°
2026-05-07 07:13 48.48497 11.53504 10267 ft 294 kts 328°
2026-05-07 07:13 48.50383 11.52022 10449 ft 317 kts 328°
2026-05-07 07:13 48.52392 11.50441 10754 ft 331 kts 329°
2026-05-07 07:13 48.54486 11.48800 11352 ft 337 kts 329°
2026-05-07 07:14 48.56579 11.47159 11994 ft 341 kts 329°
2026-05-07 07:14 48.58691 11.45499 12623 ft 345 kts 329°
2026-05-07 07:14 48.60830 11.43819 13281 ft 348 kts 329°
2026-05-07 07:14 48.62975 11.42129 13906 ft 352 kts 329°
2026-05-07 07:15 48.65175 11.40391 14465 ft 356 kts 329°
2026-05-07 07:15 48.67383 11.38644 15022 ft 360 kts 329°
2026-05-07 07:15 48.69607 11.36882 15604 ft 363 kts 328°
2026-05-07 07:15 48.71740 11.34849 16208 ft 362 kts 323°
2026-05-07 07:16 48.73839 11.32720 16828 ft 365 kts 323°
2026-05-07 07:16 48.75966 11.30564 17415 ft 369 kts 323°
2026-05-07 07:16 48.78114 11.28386 17954 ft 374 kts 323°
2026-05-07 07:16 48.80284 11.26184 18457 ft 378 kts 323°
2026-05-07 07:17 48.82480 11.23955 18938 ft 381 kts 323°
2026-05-07 07:17 48.84790 11.21933 19403 ft 388 kts 332°
2026-05-07 07:17 48.87336 11.20481 19872 ft 393 kts 339°
2026-05-07 07:17 48.89948 11.19168 20347 ft 397 kts 339°
2026-05-07 07:18 48.92580 11.17838 20807 ft 401 kts 339°
2026-05-07 07:18 48.95234 11.16492 21243 ft 404 kts 339°
2026-05-07 07:18 48.97913 11.15125 21675 ft 408 kts 339°
2026-05-07 07:18 49.00615 11.13742 22105 ft 412 kts 339°
2026-05-07 07:19 49.03344 11.12349 22531 ft 416 kts 339°
2026-05-07 07:19 49.06097 11.10944 22968 ft 419 kts 339°
2026-05-07 07:19 49.08876 11.09521 23374 ft 423 kts 339°
2026-05-07 07:19 49.11666 11.08094 23946 ft 420 kts 339°
2026-05-07 07:20 49.14416 11.06691 24593 ft 415 kts 339°
2026-05-07 07:20 49.17160 11.05293 25027 ft 416 kts 339°
2026-05-07 07:20 49.19915 11.03888 25406 ft 418 kts 339°
2026-05-07 07:20 49.22722 11.02449 25766 ft 421 kts 340°
2026-05-07 07:21 49.25517 11.01012 25986 ft 427 kts 340°
2026-05-07 07:21 49.28348 10.99553 26291 ft 431 kts 340°
2026-05-07 07:21 49.31199 10.98081 26629 ft 433 kts 340°
2026-05-07 07:21 49.34062 10.96588 26971 ft 435 kts 338°
2026-05-07 07:22 49.36807 10.94642 27305 ft 435 kts 328°
2026-05-07 07:22 49.39306 10.92042 27633 ft 435 kts 319°
2026-05-07 07:22 49.41514 10.88865 27960 ft 435 kts 310°
2026-05-07 07:22 49.43446 10.85290 28291 ft 436 kts 307°
2026-05-07 07:23 49.45365 10.81658 28619 ft 438 kts 307°
2026-05-07 07:23 49.47291 10.78009 28955 ft 441 kts 308°
2026-05-07 07:23 49.49223 10.74342 29312 ft 442 kts 308°
2026-05-07 07:23 49.51159 10.70666 29680 ft 443 kts 308°
2026-05-07 07:24 49.53104 10.66968 29978 ft 446 kts 308°
2026-05-07 07:24 49.55059 10.63244 30226 ft 448 kts 308°
2026-05-07 07:24 49.57019 10.59497 30451 ft 451 kts 308°
2026-05-07 07:24 49.58988 10.55726 30688 ft 453 kts 307°
2026-05-07 07:25 49.62951 10.48116 31140 ft 457 kts 307°
2026-05-07 07:25 49.64942 10.44291 31356 ft 458 kts 307°
2026-05-07 07:25 49.66887 10.40383 31608 ft 458 kts 304°
2026-05-07 07:26 49.68717 10.36406 32166 ft 450 kts 303°
2026-05-07 07:26 49.70459 10.32410 32641 ft 447 kts 302°
2026-05-07 07:26 49.72167 10.28395 32915 ft 448 kts 302°
2026-05-07 07:26 49.73880 10.24349 33163 ft 450 kts 302°
2026-05-07 07:27 49.75607 10.20307 33387 ft 451 kts 302°
2026-05-07 07:27 49.77357 10.16269 33598 ft 453 kts 302°
2026-05-07 07:27 49.79126 10.12234 33839 ft 454 kts 302°
2026-05-07 07:28 49.82658 10.04238 33947 ft 444 kts 302°
2026-05-07 07:28 49.86111 9.96371 33944 ft 440 kts 302°
2026-05-07 07:29 49.89545 9.88459 33945 ft 439 kts 302°
2026-05-07 07:29 49.92949 9.80597 33945 ft 439 kts 302°
2026-05-07 07:30 49.96351 9.72724 33945 ft 439 kts 302°
2026-05-07 07:30 49.99752 9.64845 33954 ft 439 kts 302°
2026-05-07 07:31 50.03141 9.56950 33961 ft 439 kts 302°
2026-05-07 07:31 50.05884 9.50322 33974 ft 437 kts 296°
2026-05-07 07:32 50.07972 9.41503 33971 ft 434 kts 284°
2026-05-07 07:32 50.09564 9.32440 33978 ft 434 kts 284°
2026-05-07 07:33 50.11168 9.23317 33978 ft 434 kts 284°
2026-05-07 07:33 50.12759 9.14254 33978 ft 433 kts 284°
2026-05-07 07:34 50.14334 9.05197 33991 ft 433 kts 284°
2026-05-07 07:34 50.15901 8.96142 33993 ft 432 kts 284°
2026-05-07 07:35 50.17463 8.87095 33990 ft 432 kts 284°
2026-05-07 07:35 50.19017 8.78046 33997 ft 432 kts 284°
2026-05-07 07:36 50.20562 8.68983 34004 ft 432 kts 283°
2026-05-07 07:36 50.22101 8.59926 34001 ft 431 kts 283°
2026-05-07 07:37 50.23625 8.50864 33999 ft 431 kts 284°
2026-05-07 07:37 50.25144 8.41795 34001 ft 431 kts 283°
2026-05-07 07:38 50.26664 8.32729 34000 ft 431 kts 283°
2026-05-07 07:38 50.28171 8.23662 34011 ft 430 kts 284°
2026-05-07 07:39 50.29672 8.14548 34009 ft 430 kts 283°
2026-05-07 07:39 50.31162 8.05498 34015 ft 429 kts 283°
2026-05-07 07:40 50.32637 7.96463 34016 ft 428 kts 283°
2026-05-07 07:40 50.34103 7.87425 34014 ft 428 kts 283°
2026-05-07 07:41 50.35561 7.78384 34010 ft 428 kts 284°
2026-05-07 07:41 50.37015 7.69344 34016 ft 428 kts 284°
2026-05-07 07:42 50.38460 7.60318 34010 ft 427 kts 283°
2026-05-07 07:42 50.39899 7.51274 34003 ft 428 kts 283°
2026-05-07 07:43 50.41335 7.42227 34007 ft 427 kts 283°
2026-05-07 07:43 50.42756 7.33185 34006 ft 427 kts 284°
2026-05-07 07:44 50.44172 7.24138 34002 ft 427 kts 284°
2026-05-07 07:44 50.45581 7.15086 34002 ft 427 kts 284°
2026-05-07 07:45 50.46981 7.06030 34002 ft 427 kts 283°
2026-05-07 07:45 50.48377 6.96980 33996 ft 427 kts 283°
2026-05-07 07:46 50.49764 6.87916 34002 ft 427 kts 283°
2026-05-07 07:46 50.51383 6.78968 34010 ft 426 kts 291°
2026-05-07 07:47 50.53544 6.70250 34006 ft 425 kts 291°
2026-05-07 07:47 50.55682 6.61581 34008 ft 425 kts 291°
2026-05-07 07:48 50.57808 6.52894 34006 ft 426 kts 291°
2026-05-07 07:48 50.59933 6.44196 34006 ft 426 kts 291°
2026-05-07 07:49 50.62051 6.35500 34018 ft 425 kts 291°
2026-05-07 07:49 50.64160 6.26804 34022 ft 425 kts 291°
2026-05-07 07:50 50.66267 6.18106 34021 ft 425 kts 291°
2026-05-07 07:50 50.68366 6.09400 34024 ft 425 kts 291°
2026-05-07 07:51 50.70453 6.00671 34032 ft 425 kts 291°
2026-05-07 07:51 50.72533 5.91940 34044 ft 425 kts 291°
2026-05-07 07:52 50.74613 5.83187 34055 ft 426 kts 291°
2026-05-07 07:52 50.76679 5.74426 34058 ft 426 kts 291°
2026-05-07 07:53 50.78745 5.65653 34056 ft 426 kts 291°
2026-05-07 07:53 50.80817 5.56822 34058 ft 426 kts 290°
2026-05-07 07:54 50.81844 5.52438 34062 ft 425 kts 290°